Location: Nicosia
(35.1670°N, 33.3670°E)
Time: 12:48:11
(UTC+02:00)

Tiangong - Pass Details

Date: 11 October 2022
Orbit: 386 x 394 km, 41.5° (Epoch: 03 December)

Event Time Altitude Azimuth Distance (km) Brightness Sun altitude
Rises 18:40:13 0° 257° (WSW) 2,270 4.2 -5.5°
Reaches altitude 10° 18:42:19 10° 263° (W) 1,420 2.6 -6.0°
Maximum altitude 18:45:27 51° 340° (NNW) 504 -1.4 -6.6°
Drops below altitude 10° 18:48:38 10° 58° (ENE) 1,435 0.2 -7.3°
Enters shadow 18:49:05 - 60° (ENE) 1,618 0.5 -7.4°
